Dublin, Ireland

1:32 PM GMT on January 17, 2018 (GMT +0000)
Dublin International

Weather History for EIDW - December, 2011

Change the Weather History Date:

Monday, December 12, 2011

  Actual Average Record
Temperature  
Mean Temperature 42 °F -  
Max Temperature 50 °F 47 °F 59 °F (2013)
Min Temperature 35 °F 37 °F 30 °F (2010)
Degree Days  
Heating Degree Days 22    
Moisture  
Dew Point 38 °F    
Average Humidity 86    
Maximum Humidity 93    
Minimum Humidity 70    
Precipitation  
Precipitation 0.03 in 0.10 in - ()
Sea Level Pressure  
Sea Level Pressure 29.29 in    
Wind  
Wind Speed 18 mph ()    
Max Wind Speed 29 mph    
Max Gust Speed 41 mph    
Visibility 7.1 miles    
Events Rain    
Averages and records for this station are not official NWS values.
T = Trace of Precipitation, MM = Missing Value Source: Averaged Metar Reports

Daily Weather History Graph

Daily Weather History Graph

Search for Another Location

Airport or City:

Trip Planner

Search our weather history database for the weather conditions in past years. The results will help you decide how hot, cold, wet, or windy it might be!

Date:

Astronomy

Dec. 12, 2011 Rise Set
Actual Time 8:31 AM GMT 4:05 PM GMT
Civil Twilight 7:48 AM GMT 4:48 PM GMT
Nautical Twilight 7:03 AM GMT 5:33 PM GMT
Astronomical Twilight 6:20 AM GMT 6:16 PM GMT
Moon 6:08 PM GMT (12/12) 9:49 AM GMT (12/12)
Length of Visible Light 8h 59m
Length of Day
7h 34m
Waning Gibbous, 96% of the Moon is Illuminated
Dec 12
Waning Gibbous
Dec 18
Last Quarter
Dec 24
New
Jan 1
First Quarter
Jan 9
Full

Hourly Weather History & Observations

Time (GMT) Temp. Windchill Dew Point Humidity Pressure Visibility Wind Dir Wind Speed Gust Speed Precip Events Conditions
12:00 AM 37 °F - 34 °F 84% 29.49 in 19 mi SW 22.4 mph - -   Scattered Clouds
12:00 AM 37.4 °F 26.4 °F 33.8 °F 87% 29.47 in 6.2 mi SW 23.0 mph - N/A   Scattered Clouds
12:30 AM 37.4 °F 26.6 °F 33.8 °F 87% 29.47 in 6.2 mi WSW 21.9 mph - N/A   Scattered Clouds
1:00 AM 37.4 °F 27.5 °F 33.8 °F 87% 29.47 in 6.2 mi WSW 18.4 mph - N/A   Mostly Cloudy
1:30 AM 37.4 °F 26.6 °F 35.6 °F 93% 29.47 in 6.2 mi WSW 21.9 mph - N/A   Scattered Clouds
2:00 AM 37.4 °F 26.4 °F 35.6 °F 93% 29.47 in 6.2 mi WSW 23.0 mph - N/A   Partly Cloudy
2:30 AM 37.4 °F 26.4 °F 35.6 °F 93% 29.47 in 6.2 mi WSW 23.0 mph - N/A   Partly Cloudy
3:00 AM 37.4 °F 26.4 °F 35.6 °F 93% 29.47 in 6.2 mi WSW 23.0 mph - N/A   Partly Cloudy
3:30 AM 39.2 °F 29.0 °F 35.6 °F 87% 29.47 in 6.2 mi WSW 21.9 mph - N/A   Partly Cloudy
4:00 AM 39.2 °F 29.0 °F 35.6 °F 87% 29.47 in 6.2 mi WSW 21.9 mph - N/A   Partly Cloudy
4:30 AM 39.2 °F 29.0 °F 35.6 °F 87% 29.47 in 6.2 mi WSW 21.9 mph - N/A   Partly Cloudy
5:00 AM 39.2 °F 29.0 °F 35.6 °F 87% 29.50 in 6.2 mi WSW 21.9 mph - N/A   Partly Cloudy
5:30 AM 39.2 °F 29.3 °F 35.6 °F 87% 29.50 in 6.2 mi WSW 20.7 mph - N/A   Partly Cloudy
6:00 AM 38 °F - 35 °F 86% 29.54 in 19 mi WSW 22.4 mph - -   Partly Cloudy
6:00 AM 37.4 °F 26.4 °F 35.6 °F 93% 29.50 in - WSW 23.0 mph - N/A   Clear
6:30 AM 37.4 °F 26.9 °F 35.6 °F 93% 29.50 in - WSW 20.7 mph - N/A   Clear
7:00 AM 39.2 °F 29.6 °F 35.6 °F 87% 29.53 in 6.2 mi WSW 19.6 mph - N/A   Partly Cloudy
7:30 AM 39.2 °F 29.6 °F 35.6 °F 87% 29.53 in 6.2 mi WSW 19.6 mph - N/A   Partly Cloudy
8:00 AM 37.4 °F 28.2 °F 35.6 °F 93% 29.53 in 6.2 mi WSW 16.1 mph - N/A   Partly Cloudy
8:30 AM 37.4 °F 27.8 °F 35.6 °F 93% 29.53 in 6.2 mi WSW 17.3 mph - N/A   Partly Cloudy
9:00 AM 39.2 °F 29.8 °F 35.6 °F 87% 29.53 in 6.2 mi WSW 18.4 mph - N/A   Partly Cloudy
9:30 AM 37.4 °F 29.3 °F 35.6 °F 93% 29.53 in 6.2 mi SW 12.7 mph - N/A   Partly Cloudy
10:00 AM 39.2 °F 30.8 °F 35.6 °F 87% 29.53 in 6.2 mi SW 15.0 mph - N/A   Partly Cloudy
10:30 AM 39.2 °F 32.0 °F 35.6 °F 87% 29.53 in 6.2 mi SSW 11.5 mph - N/A   Scattered Clouds
11:00 AM 39.2 °F 31.6 °F 35.6 °F 87% 29.53 in 6.2 mi SSW 12.7 mph - N/A   Mostly Cloudy
11:30 AM 41.0 °F 33.5 °F 35.6 °F 81% 29.50 in 6.2 mi South 13.8 mph - N/A   Mostly Cloudy
12:00 PM 42 °F - 36 °F 70% 29.49 in 19 mi South 11.2 mph - -   Scattered Clouds
12:00 PM 41.0 °F 34.7 °F 35.6 °F 81% 29.47 in 6.2 mi South 10.4 mph - N/A   Mostly Cloudy
12:30 PM 42.8 °F 35.4 °F 35.6 °F 76% 29.44 in 6.2 mi South 15.0 mph - N/A   Mostly Cloudy
1:00 PM 42.8 °F 37.0 °F 35.6 °F 76% 29.42 in 6.2 mi SSE 10.4 mph - N/A   Mostly Cloudy
1:30 PM 42.8 °F 37.5 °F 33.8 °F 70% 29.39 in 6.2 mi SSE 9.2 mph - N/A Rain Light Rain
2:00 PM 42.8 °F 35.8 °F 35.6 °F 76% 29.36 in 6.2 mi SSE 13.8 mph - N/A Rain Light Rain
2:30 PM 41.0 °F 33.1 °F 37.4 °F 87% 29.30 in 6.2 mi SSE 15.0 mph - N/A Rain Light Rain
3:00 PM 41.0 °F 32.5 °F 39.2 °F 93% 29.24 in 6.2 mi SSE 17.3 mph - N/A Rain Light Rain
3:30 PM 41.0 °F 31.9 °F 39.2 °F 93% 29.18 in 6.2 mi SSE 19.6 mph - N/A Rain Light Rain
4:00 PM 42.8 °F 35.4 °F 39.2 °F 87% 29.12 in 6.2 mi SSE 15.0 mph - N/A Rain Light Rain
4:30 PM 44.6 °F 36.9 °F 39.2 °F 81% 29.09 in 6.2 mi South 18.4 mph - N/A   Mostly Cloudy
5:00 PM 46.4 °F 39.0 °F 41.0 °F 81% 29.03 in 6.2 mi SSE 19.6 mph - N/A Rain Light Rain
5:30 PM 48.2 °F - 44.6 °F 87% 29.00 in 6.2 mi South 15.0 mph - N/A   Mostly Cloudy
6:00 PM 49 °F - 45 °F 81% 28.98 in 16 mi SW 17.9 mph - - Rain Light Rain
6:00 PM 50.0 °F - 44.6 °F 82% 28.97 in 6.2 mi SW 18.4 mph - N/A   Mostly Cloudy
6:30 PM 50.0 °F - 44.6 °F 82% 28.94 in 6.2 mi SW 23.0 mph - N/A   Mostly Cloudy
7:00 PM 48.2 °F - 42.8 °F 82% 28.91 in 6.2 mi SW 21.9 mph - N/A   Mostly Cloudy
7:30 PM 50.0 °F - 44.6 °F 82% 28.88 in 6.2 mi SW 23.0 mph 36.8 mph N/A   Mostly Cloudy
8:00 PM 50.0 °F - 46.4 °F 87% 28.88 in 5.0 mi SW 24.2 mph 41.4 mph N/A Rain Light Rain
8:30 PM 48.2 °F - 46.4 °F 93% 28.88 in 6.2 mi SW 28.8 mph - N/A Rain Light Rain
9:00 PM 48.2 °F - 44.6 °F 87% 28.85 in 6.2 mi SW 23.0 mph - N/A   Mostly Cloudy
9:30 PM 46.4 °F 37.7 °F 42.8 °F 87% 28.88 in 4.3 mi WSW 26.5 mph - N/A Rain Light Rain
10:00 PM 44.6 °F 35.9 °F 41.0 °F 87% 28.88 in 5.6 mi WSW 23.0 mph - N/A Rain Light Rain
10:30 PM 44.6 °F 35.9 °F 39.2 °F 81% 28.88 in 6.2 mi WSW 23.0 mph - N/A Rain Light Rain
11:00 PM 44.6 °F 36.6 °F 37.4 °F 76% 28.88 in 6.2 mi WSW 19.6 mph - N/A   Mostly Cloudy
11:30 PM 42.8 °F 34.5 °F 39.2 °F 87% 28.85 in 6.2 mi WSW 18.4 mph - N/A   Scattered Clouds